"Time","Temp","Dewpoint","Humidity","Pressure","Direction","Speed","Gust","Precip","PrecipRate"
"00:04:59","37.3","30.7","77","30.42","155","0","0","0.00","0.00"
"00:09:58","37","30.8","77.8","30.42","155","0","0","0.00","0.00"
"00:14:56","36.7","30.5","78","30.42","155","0","0","0.00","0.00"
"00:19:58","36.5","30.6","78.9","30.42","155","0","0","0.00","0.00"
"00:24:57","36.2","30.3","79","30.42","155","0","0","0.00","0.00"
"00:29:57","35.9","30.1","79.5","30.42","155","0","0","0.00","0.00"
"00:34:58","35.5","30.1","80.5","30.42","155","0","0","0.00","0.00"
"00:39:59","35.2","30","81","30.42","155","0","0","0.00","0.00"
"00:44:59","34.8","29.7","81.3","30.42","155","0","0","0.00","0.00"
"00:49:59","34.5","29.6","82","30.42","155","0","0","0.00","0.00"
"00:54:59","34.2","29.3","82","30.42","155","0","0","0.00","0.00"
"00:59:59","34","29.4","83","30.42","155","0","0","0.00","0.00"
"01:04:59","33.7","29.2","83.1","30.42","155","0","0","0.00","0.00"
"01:09:58","33.6","29.3","84","30.42","155","0","0","0.00","0.00"
"01:14:59","33.6","29.5","84.6","30.42","155","0","0","0.00","0.00"
"01:19:59","33.5","29.5","85","30.42","155","0","0","0.00","0.00"
"01:24:59","33.3","29","84.1","30.42","155","0","0","0.00","0.00"
"01:29:59","33.1","28.9","84.6","30.42","155","0","0","0.00","0.00"
"01:34:56","32.8","28.8","85","30.42","155","0","0","0.00","0.00"
"01:39:56","32.5","28.7","85.5","30.42","155","0","0","0.00","0.00"
"01:44:56","32.3","28.6","86","30.43","155","0","0","0.00","0.00"
"01:49:56","32.1","28.4","86","30.43","155","0","0","0.00","0.00"
"01:54:56","31.9","28.2","86","30.43","155","0","0","0.00","0.00"
"01:59:59","31.8","28.1","86.1","30.43","155","0","0","0.00","0.00"
"02:04:59","31.7","28.3","87","30.42","155","0","0","0.00","0.00"
"02:09:57","31.6","28.2","87","30.42","155","0","0","0.00","0.00"
"02:14:57","31.5","28.1","87","30.43","155","0","0","0.00","0.00"
"02:19:56","31.3","27.9","87","30.43","155","0","0","0.00","0.00"
"02:24:56","31.1","27.7","87","30.43","155","0","0","0.00","0.00"
"02:29:57","30.9","27.6","87.3","30.43","155","0","0","0.00","0.00"
"02:34:58","30.8","27.7","88","30.43","155","0","0","0.00","0.00"
"02:39:58","30.6","27.5","88","30.43","155","0","0","0.00","0.00"
"02:44:58","30.4","27.3","88","30.43","155","0","0","0.00","0.00"
"02:49:57","30.3","27.2","88","30.43","155","0","0","0.00","0.00"
"02:54:57","30.1","27","88","30.43","155","0","0","0.00","0.00"
"02:59:59","29.9","26.8","88","30.43","155","0","0","0.00","0.00"
"03:04:56","29.9","26.8","88","30.43","155","0","0","0.00","0.00"
"03:09:58","29.7","26.7","88.4","30.43","155","0","0","0.00","0.00"
"03:14:59","29.6","26.8","89","30.43","155","0","0","0.00","0.00"
"03:19:59","29.5","26.7","89","30.43","155","0","0","0.00","0.00"
"03:24:59","29.4","26.6","89","30.43","155","0","0","0.00","0.00"
"03:29:58","29.3","26.5","89","30.43","155","0","0","0.00","0.00"
"03:34:58","29.1","26.3","89","30.43","155","0","0","0.00","0.00"
"03:39:59","29","26.2","89.2","30.43","155","0","0","0.00","0.00"
"03:44:59","28.9","26.3","90","30.43","155","0","0","0.00","0.00"
"03:49:58","28.8","26.2","90","30.43","155","0","0","0.00","0.00"
"03:54:58","28.7","26.1","90","30.43","155","0","0","0.00","0.00"
"03:59:58","28.7","26.1","90","30.43","155","0","0","0.00","0.00"
"04:04:57","28.7","26.1","90","30.43","155","0","0","0.00","0.00"
"04:09:59","28.6","26","90","30.43","155","0","0","0.00","0.00"
"04:14:59","28.6","26","90","30.43","155","0","0","0.00","0.00"
"04:19:59","28.5","26","90.2","30.43","155","0","0","0.00","0.00"
"04:24:58","28.5","26.2","91","30.43","155","0","0","0.00","0.00"
"04:29:56","28.6","26.3","91","30.43","155","0","0","0.00","0.00"
"04:34:56","28.6","26.3","91","30.42","155","0","0","0.00","0.00"
"04:39:59","28.6","26.3","91","30.42","155","0","0","0.00","0.00"
"04:44:59","28.7","26.4","91","30.42","155","0","0","0.00","0.00"
"04:49:56","28.7","26.4","91","30.42","155","0","0","0.00","0.00"
"04:54:56","28.8","26.5","91","30.42","155","0","0","0.00","0.00"
"04:59:59","28.9","26.6","91","30.43","155","0","0","0.00","0.00"
"05:04:59","29.1","26.8","91","30.43","155","0","0","0.00","0.00"
"05:09:57","29.2","26.9","91","30.43","155","0","0","0.00","0.00"
"05:14:58","29.4","27.3","91.6","30.43","155","0","0","0.00","0.00"
"05:19:57","29.7","27.7","92","30.43","155","0","0","0.00","0.00"
"05:24:56","30","28","92","30.43","155","0","0","0.00","0.00"
"05:29:59","30.3","28.3","92","30.43","155","0","0","0.00","0.00"
"05:34:58","30.5","28.5","92","30.43","155","0","0","0.00","0.00"
"05:39:59","30.7","28.7","92","30.43","155","0","0","0.00","0.00"
"05:44:58","30.7","28.7","92","30.43","155","0","0","0.00","0.00"
"05:49:58","30.8","28.8","92","30.43","155","0","0","0.00","0.00"
"05:54:57","30.9","28.9","91.9","30.43","155","0","0","0.00","0.00"
"05:59:56","30.9","28.7","91.2","30.44","155","0","0","0.00","0.00"
"06:04:56","30.9","28.6","91","30.44","155","0","0","0.00","0.00"
"06:09:59","30.8","28.5","91","30.44","155","0","0","0.00","0.00"
"06:14:59","30.8","28.5","91","30.44","155","0","0","0.00","0.00"
"06:19:56","30.8","28.5","91","30.44","155","0","0","0.00","0.00"
"06:24:58","30.8","28.5","91","30.44","155","0","0","0.00","0.00"
"06:29:58","30.8","28.5","91","30.44","155","0","0","0.00","0.00"
"06:34:57","30.8","28.5","91","30.44","155","0","0","0.00","0.00"
"06:39:58","30.8","28.5","91","30.44","155","0","0","0.00","0.00"
"06:44:57","30.7","28.4","91","30.44","155","0","0","0.00","0.00"
"06:49:56","30.7","28.4","91","30.44","155","0","0","0.00","0.00"
"06:54:59","30.7","28.4","91","30.44","155","0","0","0.00","0.00"
"06:59:57","30.6","28.3","91","30.44","155","0","0","0.00","0.00"
"07:04:57","30.6","28.3","91","30.44","155","0","0","0.00","0.00"
"07:09:59","30.6","28.3","91","30.44","155","0","0","0.00","0.00"
"07:14:57","30.6","28.3","91","30.45","155","0","0","0.00","0.00"
"07:19:59","30.6","28.3","91","30.45","155","0","0","0.00","0.00"
"07:24:59","30.6","28.3","91","30.45","155","0","0","0.00","0.00"
"07:29:58","30.6","28.3","91","30.45","155","0","0","0.00","0.00"
"07:34:57","30.7","28.4","91","30.45","155","0","0","0.00","0.00"
"07:39:58","30.7","28.4","91","30.45","155","0","0","0.00","0.00"
"07:44:57","30.7","28.4","91","30.45","155","0","0","0.00","0.00"
"07:49:57","30.8","28.6","91.3","30.45","155","0","0","0.00","0.00"
"07:54:57","30.9","28.9","92","30.45","155","0","0","0.00","0.00"
"07:59:57","30.9","28.7","91.5","30.45","155","0","0","0.00","0.00"
"08:04:56","31","28.9","92","30.45","155","0","0","0.00","0.00"
"08:09:59","31.2","29.1","92","30.45","155","0","0","0.00","0.00"
"08:14:59","31.3","29.2","92","30.46","155","0","0","0.00","0.00"
"08:19:58","31.5","29.4","92","30.46","155","0","0","0.00","0.00"
"08:24:59","31.8","29.7","92","30.46","155","0","0","0.00","0.00"
"08:29:57","32.1","30","92","30.46","155","0","0","0.00","0.00"
"08:34:59","32.5","30.4","92","30.46","155","0","0","0.00","0.00"
"08:39:58","32.9","30.8","92","30.46","155","0","0","0.00","0.00"
"08:44:57","33.4","31.3","92","30.46","155","0","0","0.00","0.00"
"08:49:59","34","32.1","92.4","30.46","155","0","0","0.00","0.00"
"08:54:57","34.7","32.9","93","30.46","155","0","0","0.00","0.00"
"08:59:59","35.4","33.6","93","30.46","155","0","1.2","0.00","0.00"
"09:04:59","36.1","34.1","92.4","30.46","160","0.5","3.6","0.00","0.00"
"09:09:57","36.8","34.7","92","30.46","164","0.5","3.5","0.00","0.00"
"09:14:58","37.4","35.3","91.7","30.46","181","1.4","6","0.00","0.00"
"09:19:56","37.9","35.5","91","30.46","193","1.3","5.8","0.00","0.00"
"09:24:59","38.2","35.8","90.9","30.46","190","1.7","6","0.00","0.00"
"09:29:57","38.5","35.8","90","30.46","192","3.1","6","0.00","0.00"
"09:34:56","38.6","35.6","89.2","30.46","181","3.1","7.2","0.00","0.00"
"09:39:59","38.7","35.7","89","30.46","193","3.6","8.4","0.00","0.00"
"09:44:58","38.7","35.7","89","30.46","204","3.3","6.9","0.00","0.00"
"09:49:57","38.9","35.9","89","30.46","172","1.8","5.8","0.00","0.00"
"09:54:56","39","36","89","30.46","186","2.9","6","0.00","0.00"
"09:59:59","39.1","36.1","89","30.46","185","3.1","7.2","0.00","0.00"
"10:04:58","39.2","35.9","88.3","30.46","194","1.7","6","0.00","0.00"
"10:09:56","39.4","36.2","88.2","30.46","172","3","6","0.00","0.00"
"10:14:57","39.7","36.4","87.9","30.46","185","2.9","6","0.00","0.00"
"10:19:59","40.1","36.6","87.2","30.46","149","1.1","4.8","0.00","0.00"
"10:24:59","40.6","36.9","86.6","30.46","162","1.6","4.8","0.00","0.00"
"10:29:57","41","37.1","86","30.46","196","2.7","6","0.00","0.00"
"10:34:56","41.2","37.1","85.1","30.46","190","2.8","8.4","0.00","0.00"
"10:39:56","41.4","37.2","85","30.46","200","2.2","8.1","0.00","0.00"
"10:44:59","42.1","37.6","84.2","30.46","201","1.8","4.8","0.00","0.00"
"10:49:57","42.8","37.8","82.4","30.45","200","2.2","6","0.00","0.00"
"10:54:56","42.8","37.9","82.6","30.45","210","2.4","6","0.00","0.00"
"10:59:58","42.9","38","82.5","30.45","177","2.8","6","0.00","0.00"
"11:04:57","43","37.9","82.2","30.45","179","2.5","6","0.00","0.00"
"11:09:59","43.1","38.1","82.3","30.45","172","3.1","9.6","0.00","0.00"
"11:14:59","43.1","38","82","30.45","168","3","12","0.00","0.00"
"11:19:58","43.1","38","82","30.44","170","3.2","4.8","0.00","0.00"
"11:24:57","43.1","38","82.1","30.44","194","2.9","7.2","0.00","0.00"
"11:29:59","43.1","38.2","82.4","30.44","198","3.9","7.2","0.00","0.00"
"11:34:58","43.2","38.1","82","30.44","207","4.1","7.2","0.00","0.00"
"11:39:58","43.2","38.1","82","30.44","193","3","6","0.00","0.00"
"11:44:57","43.4","38.3","82","30.44","210","3","6","0.00","0.00"
"11:49:59","43.6","38.6","82.2","30.42","211","2.4","6","0.00","0.00"
"11:54:58","43.9","38.8","82","30.42","215","1.3","5.8","0.00","0.00"
"11:59:56","44.4","39.1","81.4","30.42","190","3.3","8.4","0.00","0.00"
"12:04:56","44.8","39.1","80.4","30.42","203","4","8.1","0.00","0.00"
"12:09:58","45","39.1","79.6","30.42","167","3.5","8.4","0.00","0.00"
"12:14:58","44.9","38.9","79.4","30.42","183","3.6","8.4","0.00","0.00"
"12:19:57","44.9","38.8","78.9","30.42","174","3.5","7.2","0.00","0.00"
"12:24:56","44.9","39.1","79.8","30.42","176","2.4","6","0.00","0.00"
"12:29:59","45.2","39.2","79.3","30.42","199","3.9","6","0.00","0.00"
"12:34:56","45.2","39.1","79","30.42","194","2.5","5.8","0.00","0.00"
"12:39:59","45.4","39.4","79.5","30.42","190","2.2","4.8","0.00","0.00"
"12:44:56","45.4","38.9","78.1","30.42","193","3.5","7.2","0.00","0.00"
"12:49:56","45.4","39.2","78.7","30.41","185","3.3","6","0.00","0.00"
"12:54:59","45.4","39.2","78.7","30.41","195","2.7","7.2","0.00","0.00"
"12:59:56","45.4","39","78.3","30.41","150","1.8","6","0.00","0.00"
"13:04:56","45.5","39","78.1","30.41","159","2.5","8.4","0.00","0.00"
"13:09:58","45.7","39.3","78.2","30.41","176","2.7","8.4","0.00","0.00"
"13:14:58","45.8","39.3","78","30.41","152","2.2","4.8","0.00","0.00"
"13:19:57","46","39.3","77.6","30.41","153","2.3","7.2","0.00","0.00"
"13:24:56","46","39.3","77.4","30.41","175","2.8","7.2","0.00","0.00"
"13:29:58","46.1","39.3","77","30.41","203","3.9","7.2","0.00","0.00"
"13:34:57","46.1","39.5","77.5","30.40","208","2.1","7.2","0.00","0.00"
"13:39:56","46.3","39.6","77.2","30.40","186","1.3","5.8","0.00","0.00"
"13:44:59","46.4","39.3","76.2","30.40","193","3.7","6","0.00","0.00"
"13:49:58","46.4","39.3","76.4","30.40","175","1.4","6","0.00","0.00"
"13:54:57","46.5","39.4","76.2","30.40","148","1.1","4.6","0.00","0.00"
"13:59:59","46.6","39.4","76","30.40","170","2.3","6","0.00","0.00"
"14:04:59","46.8","39.5","75.8","30.39","190","2.1","6","0.00","0.00"
"14:09:57","46.9","39.6","75.6","30.39","191","2","5.8","0.00","0.00"
"14:14:58","46.9","39.4","75","30.39","173","2.6","4.8","0.00","0.00"
"14:19:56","46.9","39.4","74.9","30.39","145","2.5","7.2","0.00","0.00"
"14:24:56","46.9","39.2","74.5","30.39","135","3.1","7.2","0.00","0.00"
"14:29:58","46.9","39.4","75","30.39","143","1.6","3.6","0.00","0.00"
"14:34:57","46.9","39.3","74.6","30.38","147","1.3","7.2","0.00","0.00"
"14:39:56","46.9","38.9","73.7","30.38","151","2.5","6.9","0.00","0.00"
"14:44:59","46.9","38.8","73.3","30.38","160","2.5","6","0.00","0.00"
"14:49:57","46.9","38.7","73.1","30.38","124","3.6","6","0.00","0.00"
"14:54:56","46.9","39","74","30.38","148","3.5","7.2","0.00","0.00"
"14:59:56","46.8","39","74.2","30.38","127","3.6","7.2","0.00","0.00"
"15:04:59","46.7","39.2","74.8","30.37","124","4.1","7.2","0.00","0.00"
"15:09:57","46.6","39","74.7","30.37","122","4.6","8.4","0.00","0.00"
"15:14:58","46.5","39","75","30.37","118","3.6","10.8","0.00","0.00"
"15:19:56","46.4","38.8","74.9","30.36","115","4.2","10.8","0.00","0.00"
"15:24:56","46.3","38.8","75","30.36","181","1.6","4.8","0.00","0.00"
"15:29:58","46.3","38.7","74.7","30.38","137","1.4","3.6","0.00","0.00"
"15:34:57","46.3","38.7","74.8","30.38","138","2.1","4.8","0.00","0.00"
"15:39:56","46.3","38.8","75","30.38","145","1","3.6","0.00","0.00"
"15:44:59","46.3","38.8","75","30.39","159","2.2","6","0.00","0.00"
"15:49:58","46.3","38.6","74.3","30.39","183","2.6","6","0.00","0.00"
"15:54:56","46.4","38.6","74","30.39","138","2.6","6","0.00","0.00"
"15:59:58","46.4","38.6","74","30.39","143","3.1","6","0.00","0.00"
"16:04:58","46.4","38.6","74","30.39","145","1.8","5.8","0.00","0.00"
"16:09:56","46.4","38.6","74","30.39","126","0.2","3.6","0.00","0.00"
"16:14:56","46.3","38.4","73.6","30.39","126","1.8","4.8","0.00","0.00"
"16:19:59","46.3","38.4","73.9","30.39","114","1.2","4.8","0.00","0.00"
"16:24:58","46.2","38.4","73.9","30.39","115","1.1","4.8","0.00","0.00"
"16:29:56","46.2","38","73","30.39","155","2.7","6","0.00","0.00"
"16:34:56","46.1","38","73.2","30.39","163","1","3.6","0.00","0.00"
"16:39:57","46.1","38","73.4","30.39","135","1.5","3.6","0.00","0.00"
"16:44:57","45.9","38.1","74","30.39","132","0","1.2","0.00","0.00"
"16:49:56","45.8","38","74","30.39","132","0","0","0.00","0.00"
"16:54:56","45.6","37.8","74","30.39","132","0","0","0.00","0.00"
"16:59:56","45.5","37.7","74","30.39","132","0","0","0.00","0.00"
"17:04:56","45.4","37.6","74","30.39","132","0","0","0.00","0.00"
"17:09:59","45.2","37.4","74.1","30.39","132","0","0","0.00","0.00"
"17:14:56","45","37.6","75","30.39","132","0","0","0.00","0.00"
"17:19:56","44.8","37.5","75.4","30.39","132","0","0","0.00","0.00"
"17:24:57","44.6","37.5","76","30.39","132","0","0","0.00","0.00"
"17:29:57","44.4","37.3","76","30.39","132","0","0","0.00","0.00"
"17:34:57","44.2","37.3","76.7","30.39","132","0","0","0.00","0.00"
"17:39:58","44","37.3","77","30.39","132","0","0","0.00","0.00"
"17:44:59","43.8","37.2","77.5","30.39","132","0","0","0.00","0.00"
"17:49:59","43.7","37.3","78","30.39","132","0","0","0.00","0.00"
"17:54:59","43.5","37.1","78","30.39","132","0","0","0.00","0.00"
"17:59:59","43.3","36.9","78","30.39","132","0","0","0.00","0.00"
"18:04:59","43.1","36.8","78.3","30.39","132","0","0","0.00","0.00"
"18:09:57","42.9","36.8","79","30.39","132","0","1.2","0.00","0.00"
"18:14:59","42.8","37","79.8","30.39","132","0","1.2","0.00","0.00"
"18:19:59","42.7","37","80","30.39","132","0","0","0.00","0.00"
"18:24:56","42.6","36.9","80","30.39","132","0","0","0.00","0.00"
"18:29:56","42.5","36.8","80","30.39","132","0","0","0.00","0.00"
"18:34:57","42.3","36.8","80.5","30.39","132","0","0","0.00","0.00"
"18:39:59","42.2","36.8","81","30.39","132","0","0","0.00","0.00"
"18:44:56","42","36.6","81","30.40","132","0","0","0.00","0.00"
"18:49:58","41.8","36.6","81.6","30.40","132","0","0","0.00","0.00"
"18:54:58","41.6","36.5","82","30.40","132","0","0","0.00","0.00"
"18:59:57","41.4","36.5","82.6","30.40","132","0","0","0.00","0.00"
"19:04:59","41.3","36.5","83","30.40","132","0","0","0.00","0.00"
"19:09:57","41.1","36.3","83","30.40","132","0","0","0.00","0.00"
"19:14:56","40.9","36.1","83","30.40","132","0","0","0.00","0.00"
"19:19:56","40.7","35.9","83.3","30.40","132","0","0","0.00","0.00"
"19:24:57","40.6","36.1","84","30.40","132","0","0","0.00","0.00"
"19:29:58","40.5","36.2","84.8","30.40","132","0","2.4","0.00","0.00"
"19:34:59","40.5","36.3","85","30.40","132","1.5","2.4","0.00","0.00"
"19:39:56","40.4","36.2","85","30.40","132","0.5","2.3","0.00","0.00"
"19:44:57","40.3","36.1","85","30.40","132","0","0","0.00","0.00"
"19:49:58","40.1","36","85","30.40","132","0","0","0.00","0.00"
"19:54:58","39.9","35.8","85","30.40","132","0","0","0.00","0.00"
"19:59:59","39.6","35.5","85","30.40","132","0","0","0.00","0.00"
"20:04:59","39.4","35.5","85.8","30.40","132","0","0","0.00","0.00"
"20:09:57","39.1","35.3","86","30.40","132","0","0","0.00","0.00"
"20:14:56","38.9","35.1","86","30.40","132","0","0","0.00","0.00"
"20:19:56","38.7","35","86.3","30.40","132","0","0","0.00","0.00"
"20:24:59","38.5","34.8","86.4","30.40","132","0","0","0.00","0.00"
"20:29:58","38.3","34.8","86.8","30.40","132","0","0","0.00","0.00"
"20:34:58","38.2","34.7","87","30.40","132","0","0","0.00","0.00"
"20:39:59","38.1","34.6","87","30.40","132","0","0","0.00","0.00"
"20:44:59","37.9","34.6","87.5","30.40","132","0","0","0.00","0.00"
"20:49:58","37.8","34.5","87.9","30.40","132","0","0","0.00","0.00"
"20:54:57","37.6","34.4","88","30.40","132","0","0","0.00","0.00"
"20:59:57","37.4","34.2","88","30.40","132","0","0","0.00","0.00"
"21:04:57","37.2","34","88","30.40","132","0","0","0.00","0.00"
"21:09:59","37","33.8","88","30.40","132","0","0","0.00","0.00"
"21:14:56","36.9","34","89","30.41","132","0","1.2","0.00","0.00"
"21:19:59","37","34.3","90","30.41","132","0","0","0.00","0.00"
"21:24:59","37","34.3","90","30.41","132","0","0","0.00","0.00"
"21:29:58","37","34.3","90","30.41","132","0","0","0.00","0.00"
"21:34:58","37","34.3","90","30.40","132","0","0","0.00","0.00"
"21:39:58","36.9","34.2","90","30.40","132","0","0","0.00","0.00"
"21:44:59","36.8","34.1","90","30.40","132","0","0","0.00","0.00"
"21:49:58","36.7","34","90","30.40","132","0","0","0.00","0.00"
"21:54:58","36.8","34.1","90","30.40","132","0","0","0.00","0.00"
"21:59:57","36.8","34.1","90","30.40","132","0","0","0.00","0.00"
"22:04:57","36.8","34.1","90","30.40","132","0","0","0.00","0.00"
"22:09:56","36.8","34.1","90","30.40","132","0","0","0.00","0.00"
"22:14:56","36.9","34.4","90.6","30.40","132","0","0","0.00","0.00"
"22:19:59","37","34.3","90.1","30.40","132","0","0","0.00","0.00"
"22:24:59","36.9","34.2","90","30.40","132","0","0","0.00","0.00"
"22:29:59","36.8","34.1","90","30.40","132","0","0","0.00","0.00"
"22:34:58","36.8","34.1","90","30.40","132","0","0","0.00","0.00"
"22:39:59","36.7","34","90","30.40","132","0","0","0.00","0.00"
"22:44:59","36.6","33.9","90","30.40","132","0","0","0.00","0.00"
"22:49:57","36.5","33.8","90","30.40","132","0","0","0.00","0.00"
"22:54:57","36.5","34.1","90.9","30.40","132","0","0","0.00","0.00"
"22:59:56","36.5","34.1","91","30.40","132","0","0","0.00","0.00"
"23:04:57","36.4","34","91","30.40","132","0","0","0.00","0.00"
"23:09:59","36.3","33.8","90.7","30.40","132","0","0","0.00","0.00"
"23:14:56","36.1","33.7","90.7","30.40","132","0","0","0.00","0.00"
"23:19:59","36","33.6","91","30.40","132","0","0","0.00","0.00"
"23:24:59","35.8","33.4","91","30.40","132","0","0","0.00","0.00"
"23:29:58","35.6","33.2","91","30.40","132","0","0","0.00","0.00"
"23:34:57","35.4","33","91","30.39","132","0","0","0.00","0.00"
"23:39:57","35.3","32.9","91","30.39","132","0","0","0.00","0.00"
"23:44:56","35.1","32.7","91","30.39","132","0","0","0.00","0.00"
"23:49:59","35","32.6","91","30.39","132","0","0","0.00","0.00"
"23:54:59","35","32.6","91","30.39","132","0","0","0.00","0.00"
